Location: Pebble Beach Sunset Acres
(33.0837°N, 96.4508°W)
Time: 06:20:49
(UTC+00:00)

Okean 1 - Pass Details

Date: 30 June 2022
Orbit: 532 x 553 km, 82.5° (Epoch: 15 August)

Event Time Altitude Azimuth Distance (km) Brightness Sun altitude
Rises 09:18:35 0° 13° (NNE) 2,690 7.9 -20.8°
Reaches altitude 10° 09:21:21 10° 34° (NE) 1,791 7.1 -20.4°
Maximum altitude 09:23:59 17° 76° (ENE) 1,387 6.1 -20.1°
Drops below altitude 10° 09:26:37 10° 119° (ESE) 1,778 6.1 -19.7°
Sets 09:29:20 0° 139° (SE) 2,662 6.8 -19.3°
